Flag for Germany Weather past 2 weeks in Pirmasens, Rhineland-Palatinate, Germany

Now
55 °F

Sunny.


Feels Like: 54 °F
Forecast: 36 / 58 °F
Wind: 6 mph from Northeast

Location: Zweibrucken - Rheinland-Pfalz

Current Time: Sep 23, 2014 at 7:18:47 PM

Latest Report: Sep 23, 2014 at 6:50 PM


Visibility: 10 mi

Pressure: 30.07 "Hg

Humidity: 72%

Dew point: 46 °F

Location of PirmasensLocation

Historic Weather in Pirmasens — Graph

°F

Pirmasens temperature yesterday

Maximum temperature yesterday: 59 °F (at 3:50 PM)
Minimum temperature yesterday: 45 °F (at 10:50 PM)
Average temperature yesterday: 52 °F

Past Weeks' High & Low Weather Summary

 TemperatureHumidityPressure
High79 °F (Sep 17, 3:20 PM)100% (Sep 11, 8:50 AM)30.21 "Hg (Sep 11, 8:50 AM)
Low37 °F (Sep 23, 5:50 AM)53% (Sep 16, 5:50 PM)29.86 "Hg (Sep 17, 4:20 PM)
Average60 °F83%30.04 "Hg
* Reported Sep 8 5:20 PM — Sep 23 5:50 PM, Pirmasens, Weather by CustomWeather, © 2014

Note: Actual official high and low records may vary slightly from our data, if they occured in-between our weather recording intervals... More about our weather records

Advertising

Pirmasens weather history for previous 24 hours

 ConditionsComfort  
Time TempWeatherWind HumidityBarometerVisibility
5:50 PM
Sep 23
57 °FPassing clouds.5 mph67%30.07 "HgN/A
5:20 PM57 °FPassing clouds.5 mph67%30.07 "HgN/A
4:50 PM59 °FPassing clouds.6 mph63%30.09 "HgN/A
4:20 PM59 °FPassing clouds.6 mph59%30.09 "HgN/A
3:50 PM59 °FPassing clouds.5 mph63%30.12 "HgN/A
3:20 PM59 °FPassing clouds.5 mph59%30.12 "HgN/A
2:50 PM57 °FPassing clouds.5 mph63%30.12 "HgN/A
2:20 PM59 °FPassing clouds.6 mph68%30.15 "HgN/A
1:50 PM55 °FPassing clouds.5 mph72%30.15 "HgN/A
1:20 PM55 °FPassing clouds.5 mph67%30.15 "HgN/A
12:50 PM57 °FPassing clouds.7 mph67%30.15 "HgN/A
12:20 PM54 °FPassing clouds.5 mph77%30.18 "HgN/A
11:50 AM55 °FPassing clouds.3 mph67%30.18 "HgN/A
11:20 AM54 °FPassing clouds.3 mph82%30.18 "HgN/A
10:50 AM50 °FPassing clouds.2 mph100%30.21 "HgN/A
10:20 AM48 °FFog.3 mph94%30.18 "Hg2 mi
9:50 AM43 °FFog.2 mph100%30.18 "Hg0 mi
9:20 AM41 °FFog.1 mph100%30.18 "Hg0 mi
8:50 AM39 °FFog.2 mph100%30.18 "Hg0 mi
8:20 AM37 °FFog.1 mph100%30.18 "Hg0 mi
7:50 AM37 °FFog.2 mph93%30.18 "Hg0 mi
5:50 AM37 °FFog.No wind100%30.18 "Hg0 mi
5:20 AM39 °FFog.2 mph93%30.18 "Hg1 mi
4:50 AM39 °FFog.2 mph93%30.18 "Hg1 mi
4:20 AM39 °FFog.1 mph93%30.18 "Hg1 mi
1:20 AM43 °FFog.No wind100%30.18 "HgN/A
12:50 AM45 °FClear.3 mph93%30.18 "Hg10 mi
10:50 PM
Sep 22
45 °FClear.2 mph100%30.18 "Hg10 mi
10:20 PM46 °FClear.2 mph93%30.18 "Hg10 mi
9:50 PM46 °FClear.3 mph93%30.18 "Hg10 mi
9:20 PM50 °FSunny.2 mph82%30.18 "Hg10 mi
8:50 PM50 °FSunny.2 mph82%30.18 "Hg10 mi
8:20 PM50 °FSunny.3 mph82%30.18 "Hg10 mi
7:50 PM50 °FSunny.7 mph82%30.15 "Hg10 mi
7:20 PM50 °FSunny.7 mph88%30.15 "Hg10 mi
Weather by CustomWeather, © 2014

See weather overviewHow to use our weather pages